Flag for U.S.A. Weather past 2 weeks in Hayward, California, U.S.A.

Now
55 °F

Fog.


Feels Like: 55 °F
Forecast: 54 / 64 °F
Wind: 3 mph from Northwest

Location: Hayward Air Terminal

Current Time: Dec 22, 2014 at 8:28:16 AM

Latest Report: Dec 22, 2014 at 8:03 AM


Visibility: 1 mi

Pressure: 30.27 "Hg

Humidity: 100%

Dew point: 55 °F

Location of HaywardLocation

Historic Weather in Hayward — Graph

°F

Hayward temperature yesterday

Maximum temperature yesterday: 65 °F (at 1:54 PM)
Minimum temperature yesterday: 56 °F (at 3:54 AM)
Average temperature yesterday: 60 °F

Past Weeks' High & Low Weather Summary

 TemperatureHumidityPressure
High71 °F (Dec 8, 12:54 PM)100% (Dec 11, 10:54 AM)30.34 "Hg (Dec 11, 10:54 AM)
Low48 °F (Dec 13, 1:54 AM)49% (Dec 14, 1:54 PM)29.55 "Hg (Dec 11, 7:54 AM)
Average57 °F82%30.07 "Hg
* Reported Dec 7 6:03 AM — Dec 22 6:54 AM, Hayward, Weather by CustomWeather, © 2014

Note: Actual official high and low records may vary slightly from our data, if they occured in-between our weather recording intervals... More about our weather records

Advertising

Hayward weather history for previous 24 hours

 ConditionsComfort  
Time TempWeatherWind HumidityBarometerVisibility
6:54 AM
Dec 22
56 °FFog.No wind100%30.29 "Hg1 mi
5:54 AM56 °FFog.3 mph100%30.29 "Hg0 mi
4:54 AM57 °FFog.No wind100%30.29 "Hg5 mi
3:54 AM57 °FFog.3 mph100%30.29 "Hg1 mi
2:54 AM59 °FMostly cloudy.No wind93%30.30 "Hg8 mi
1:54 AM60 °FMostly cloudy.3 mph90%30.30 "Hg10 mi
12:54 AM60 °FOvercast.7 mph90%30.30 "Hg10 mi
11:54 PM
Dec 21
60 °FLow clouds.3 mph90%30.31 "Hg10 mi
11:01 PM59 °FPassing clouds.No wind88%30.29 "Hg10 mi
9:54 PM61 °FOvercast.No wind87%30.32 "Hg10 mi
8:54 PM61 °FOvercast.No wind90%30.31 "Hg10 mi
7:54 PM61 °FOvercast.No wind90%30.31 "Hg10 mi
6:54 PM61 °FOvercast.5 mph90%30.30 "Hg10 mi
6:01 PM61 °FPassing clouds.6 mph88%30.27 "Hg10 mi
5:54 PM61 °FPassing clouds.7 mph90%30.30 "Hg10 mi
4:54 PM62 °FOvercast.10 mph86%30.29 "Hg10 mi
3:54 PM64 °FPartly sunny.9 mph84%30.29 "Hg10 mi
2:54 PM64 °FBroken clouds.9 mph84%30.29 "Hg10 mi
1:54 PM65 °FScattered clouds.8 mph85%30.29 "Hg10 mi
1:01 PM63 °FMostly cloudy.7 mph88%30.28 "Hg10 mi
11:54 AM62 °FFog.5 mph90%30.32 "Hg3 mi
10:54 AM61 °FFog.5 mph93%30.33 "Hg2 mi
9:54 AM60 °FFog.5 mph100%30.34 "Hg1 mi
8:54 AM58 °FFog.6 mph100%30.34 "Hg1 mi
Weather by CustomWeather, © 2014

See weather overviewHow to use our weather pages